When you browse on this site, cookies collect data to enhance your experience and personalize the content and advertising you see.
Visit our Privacy Policy to learn more. By continuing to use the site, you agree to this use of cookies and data.
  • In Latvia
  • List of Countries
  • For 7 days
  • Water Temperature
  • Weather Map
  • Weather Widgets
  • user-avatar
    Login

    Hourly Weather Kecskemet

    Today, 18 January, Saturday

    Time Temperature Precipitation Wind Pressure Humidity
    00:00 -2°C° 0 mm 2 mps 759 mmHg 79%
    01:00 -2°C° 0 mm 3 mps 759 mmHg 80%
    02:00 -2°C° 0 mm 3 mps 758 mmHg 81%
    03:00 -2°C° 0 mm 3 mps 758 mmHg 82%
    04:00 -2°C° 0 mm 3 mps 758 mmHg 84%
    05:00 -2°C° 0 mm 2 mps 758 mmHg 85%
    06:00 -2°C° 0 mm 2 mps 758 mmHg 86%
    07:00 -2°C° 0 mm 2 mps 758 mmHg 87%
    08:00 -1°C° 0 mm 2 mps 758 mmHg 82%
    09:00 0°C° 0 mm 3 mps 758 mmHg 77%
    10:00 +1°C° 0 mm 3 mps 758 mmHg 71%
    11:00 +1°C° 0 mm 3 mps 758 mmHg 68%
    12:00 +2°C° 0 mm 3 mps 758 mmHg 66%
    13:00 +3°C° 0 mm 3 mps 758 mmHg 63%
    14:00 +3°C° 0 mm 2 mps 757 mmHg 66%
    15:00 +2°C° 0 mm 2 mps 757 mmHg 69%
    16:00 +2°C° 0 mm 1 mps 757 mmHg 72%
    17:00 +2°C° 0 mm 1 mps 757 mmHg 75%
    18:00 -1°C° 0 mm 2 mps 757 mmHg 77%
    19:00 -1°C° 0 mm 2 mps 757 mmHg 79%
    20:00 +1°C° 0 mm 1 mps 757 mmHg 79%
    21:00 +1°C° 0 mm 1 mps 757 mmHg 80%
    22:00 +1°C° 0 mm 1 mps 757 mmHg 80%
    23:00 +1°C° 0 mm 1 mps 757 mmHg 80%

    Tomorrow, 19 January, Sunday

    Time Temperature Precipitation Wind Pressure Humidity
    00:00 0°C° 0 mm 0 mps 757 mmHg 81%
    01:00 0°C° 0 mm 0 mps 758 mmHg 81%
    02:00 0°C° 0 mm 0 mps 757 mmHg 82%
    03:00 0°C° 0 mm 0 mps 757 mmHg 84%
    04:00 -1°C° 0 mm 0 mps 757 mmHg 85%
    05:00 -1°C° 0 mm 0 mps 757 mmHg 87%
    06:00 0°C° 0 mm 1 mps 758 mmHg 89%
    07:00 0°C° 0 mm 1 mps 758 mmHg 91%
    08:00 +1°C° 0 mm 1 mps 758 mmHg 88%
    09:00 +2°C° 0 mm 1 mps 759 mmHg 85%
    10:00 +2°C° 0 mm 1 mps 759 mmHg 81%
    11:00 +3°C° 0 mm 1 mps 759 mmHg 78%
    12:00 +3°C° 0 mm 2 mps 760 mmHg 75%
    13:00 +3°C° 0 mm 2 mps 760 mmHg 71%
    14:00 +3°C° 0 mm 2 mps 760 mmHg 75%
    15:00 +2°C° 0 mm 2 mps 761 mmHg 78%
    16:00 +1°C° 0 mm 2 mps 761 mmHg 82%
    17:00 +1°C° 0 mm 2 mps 762 mmHg 84%
    18:00 +1°C° 0 mm 2 mps 762 mmHg 86%
    19:00 -1°C° 0 mm 2 mps 763 mmHg 88%
    20:00 -1°C° 0 mm 2 mps 763 mmHg 90%
    21:00 -1°C° 0 mm 2 mps 764 mmHg 93%
    22:00 -1°C° 0 mm 2 mps 765 mmHg 95%
    23:00 +1°C° 0 mm 2 mps 765 mmHg 96%

    Day after tomorrow, 20 January, Monday

    Time Temperature Precipitation Wind Pressure Humidity
    00:00 +1°C° 0 mm 2 mps 766 mmHg 97%
    01:00 +1°C° 0 mm 2 mps 766 mmHg 97%
    02:00 +1°C° 0 mm 2 mps 767 mmHg 96%
    03:00 +1°C° 0 mm 2 mps 767 mmHg 95%
    04:00 +1°C° 0 mm 2 mps 767 mmHg 93%
    05:00 +1°C° 0 mm 2 mps 768 mmHg 92%
    06:00 +1°C° 0 mm 2 mps 769 mmHg 91%
    07:00 +1°C° 0 mm 2 mps 769 mmHg 90%
    08:00 +2°C° 0 mm 2 mps 770 mmHg 87%
    09:00 +2°C° 0 mm 2 mps 770 mmHg 84%
    10:00 +4°C° 0 mm 1 mps 771 mmHg 81%
    11:00 +4°C° 0 mm 2 mps 771 mmHg 77%
    12:00 +4°C° 0 mm 2 mps 771 mmHg 73%
    13:00 +5°C° 0 mm 2 mps 771 mmHg 69%
    14:00 +4°C° 0 mm 2 mps 771 mmHg 70%
    15:00 +5°C° 0 mm 1 mps 772 mmHg 72%
    16:00 +5°C° 0 mm 1 mps 772 mmHg 74%
    17:00 +4°C° 0 mm 1 mps 772 mmHg 76%
    18:00 +3°C° 0 mm 1 mps 772 mmHg 78%
    19:00 +3°C° 0 mm 1 mps 772 mmHg 80%
    20:00 +2°C° 0 mm 1 mps 773 mmHg 81%
    21:00 +2°C° 0 mm 1 mps 773 mmHg 82%
    22:00 +2°C° 0 mm 1 mps 773 mmHg 83%
    23:00 +2°C° 0 mm 1 mps 773 mmHg 84%

    21 January, Tuesday

    Time Temperature Precipitation Wind Pressure Humidity
    00:00 +1°C° 0 mm 1 mps 773 mmHg 84%
    01:00 +1°C° 0 mm 1 mps 773 mmHg 85%
    02:00 +1°C° 0 mm 1 mps 773 mmHg 85%
    03:00 +1°C° 0 mm 1 mps 772 mmHg 86%
    04:00 +1°C° 0 mm 1 mps 772 mmHg 87%
    05:00 +1°C° 0 mm 1 mps 772 mmHg 88%
    06:00 0°C° 0 mm 1 mps 772 mmHg 89%
    07:00 0°C° 0 mm 1 mps 772 mmHg 90%
    08:00 -1°C° 0 mm 2 mps 772 mmHg 84%
    09:00 +2°C° 0 mm 2 mps 772 mmHg 79%
    10:00 +3°C° 0 mm 2 mps 772 mmHg 74%
    11:00 +4°C° 0 mm 2 mps 772 mmHg 69%
    12:00 +5°C° 0 mm 2 mps 771 mmHg 65%
    13:00 +5°C° 0 mm 2 mps 771 mmHg 61%
    14:00 +5°C° 0 mm 2 mps 770 mmHg 65%
    15:00 +4°C° 0 mm 2 mps 770 mmHg 69%
    16:00 +4°C° 0 mm 1 mps 770 mmHg 73%
    17:00 +3°C° 0 mm 1 mps 769 mmHg 76%
    18:00 +2°C° 0 mm 1 mps 769 mmHg 79%
    19:00 +2°C° 0 mm 1 mps 769 mmHg 83%
    20:00 +1°C° 0 mm 1 mps 769 mmHg 84%
    21:00 +1°C° 0 mm 1 mps 768 mmHg 85%
    22:00 -1°C° 0 mm 2 mps 768 mmHg 86%
    23:00 +1°C° 0 mm 1 mps 768 mmHg 87%

    22 January, Wednesday

    Time Temperature Precipitation Wind Pressure Humidity
    00:00 +1°C° 0 mm 1 mps 767 mmHg 87%
    01:00 0°C° 0 mm 1 mps 767 mmHg 88%
    02:00 0°C° 0 mm 1 mps 767 mmHg 88%
    03:00 0°C° 0 mm 1 mps 766 mmHg 88%
    04:00 0°C° 0 mm 1 mps 766 mmHg 88%
    05:00 0°C° 0 mm 1 mps 766 mmHg 88%
    06:00 0°C° 0 mm 1 mps 765 mmHg 88%
    07:00 0°C° 0 mm 1 mps 765 mmHg 88%
    08:00 +1°C° 0 mm 1 mps 765 mmHg 83%
    09:00 +2°C° 0 mm 1 mps 765 mmHg 77%
    10:00 +3°C° 0 mm 1 mps 765 mmHg 72%
    11:00 +4°C° 0 mm 1 mps 765 mmHg 68%
    12:00 +5°C° 0 mm 1 mps 764 mmHg 64%
    13:00 +5°C° 0 mm 1 mps 764 mmHg 61%
    14:00 +4°C° 0 mm 1 mps 763 mmHg 65%
    15:00 +4°C° 0 mm 1 mps 763 mmHg 68%
    16:00 +3°C° 0 mm 1 mps 763 mmHg 72%
    17:00 +2°C° 0 mm 1 mps 762 mmHg 76%
    18:00 +1°C° 0 mm 1 mps 762 mmHg 79%
    19:00 +1°C° 0 mm 1 mps 762 mmHg 82%
    20:00 +1°C° 0 mm 1 mps 762 mmHg 83%
    21:00 0°C° 0 mm 1 mps 762 mmHg 84%
    22:00 0°C° 0 mm 1 mps 762 mmHg 86%
    23:00 0°C° 0 mm 1 mps 762 mmHg 86%

    23 January, Thursday

    Time Temperature Precipitation Wind Pressure Humidity
    00:00 0°C° 0 mm 1 mps 762 mmHg 87%
    01:00 0°C° 0 mm 1 mps 762 mmHg 88%
    02:00 0°C° 0 mm 1 mps 761 mmHg 89%
    03:00 0°C° 0 mm 1 mps 761 mmHg 90%
    04:00 0°C° 0 mm 1 mps 761 mmHg 91%
    05:00 -1°C° 0 mm 1 mps 761 mmHg 91%
    06:00 -1°C° 0 mm 1 mps 761 mmHg 91%
    07:00 -1°C° 0 mm 1 mps 761 mmHg 91%
    08:00 0°C° 0 mm 1 mps 761 mmHg 86%
    09:00 +1°C° 0 mm 1 mps 761 mmHg 80%
    10:00 +2°C° 0 mm 1 mps 762 mmHg 75%
    11:00 +3°C° 0 mm 1 mps 761 mmHg 71%
    12:00 +3°C° 0 mm 0 mps 761 mmHg 67%
    13:00 +3°C° 0 mm 0 mps 761 mmHg 64%
    14:00 +3°C° 0 mm 0 mps 761 mmHg 67%
    15:00 +2°C° 0 mm 0 mps 760 mmHg 71%
    16:00 +1°C° 0 mm 0 mps 760 mmHg 74%
    17:00 +1°C° 0 mm 0 mps 760 mmHg 77%
    18:00 0°C° 0 mm 0 mps 760 mmHg 79%
    19:00 0°C° 0 mm 0 mps 760 mmHg 82%
    20:00 -1°C° 0 mm 0 mps 760 mmHg 83%
    21:00 -1°C° 0 mm 0 mps 760 mmHg 83%
    22:00 -1°C° 0 mm 0 mps 760 mmHg 84%
    23:00 0°C° 0 mm 1 mps 760 mmHg 85%
    Show more